Vancouver, WA
on Wednesday, December 12, 2012

Wednesday
Previous Day Next Day
Daily Summary
 ActualAverageRecord
Temperature
Mean Temperature °F 41°F  
Max Temperature 47°F 47°F 61°F (2010)
Min Temperature 41°F 34°F -10°F (1919)
Degree Days
Heating Degree Days 21    
Month to date heating degree days 226  
Since 1 July heating degree days 1048  
Cooling Degree Days 0    
Month to date cooling degree days 0  
Year to date cooling degree days 398  
Moisture
Dew Point 39°F   
Average Humidity 86    
Maximum Humidity 96    
Minimum Humidity 76    
Precipitation
Precipitation 0.23 in 0.21 in 1.49 in (1966)
Month to date precipitation 2.82 2.45  
Year to date precipitation 41.14 34.82  
Snow
Snow 0.00 in in in ()
Month to date snowfall 0.0  
Since 1 July snowfall 0.0  
Snow Depth 0.00 in   
Wind
Wind Speed 1 mph   
Max Wind Speed 7 mph   
Max Gust Speed 12 mph   
Visibility 10 miles   
Events Rain   

Key: T is trace of precipitation, MM is missing value
Source: NWS Daily Summary
Time(PST)TemperatureDew PointHumidity Pressure Visibility Wind DirectionWind SpeedGust SpeedPrecipitationEvents Conditions
12:53 AM 44.1°F 39.0°F 82% 29.70 in 10.0 miles Calm Calm - N/A   Overcast
1:53 AM 43.0°F 39.0°F 86% 29.72 in 10.0 miles Calm Calm - 0.01 in Rain Light Rain
2:53 AM 43.0°F 39.9°F 89% 29.74 in 10.0 miles Calm Calm - 0.01 in   Overcast
3:53 AM 42.1°F 39.0°F 89% 29.75 in 10.0 miles Calm Calm - 0.00 in   Overcast
4:53 AM 42.1°F 39.0°F 89% 29.76 in 10.0 miles Calm Calm - N/A   Overcast
5:53 AM 42.1°F 39.0°F 89% 29.78 in 10.0 miles SE 3.5 mph - N/A   Overcast
6:53 AM 42.1°F 37.9°F 85% 29.79 in 10.0 miles Variable 3.5 mph - 0.00 in   Overcast
7:53 AM 42.1°F 37.9°F 85% 29.81 in 10.0 miles Calm Calm - 0.00 in   Overcast
8:53 AM 43.0°F 37.9°F 82% 29.83 in 10.0 miles Calm Calm - 0.01 in Rain Light Rain
9:53 AM 43.0°F 39.0°F 86% 29.84 in 10.0 miles SSE 3.5 mph - 0.02 in Rain Light Rain
10:53 AM 44.1°F 39.0°F 82% 29.86 in 10.0 miles SSW 3.5 mph - 0.00 in Rain Light Rain
11:25 AM 44.6°F 39.2°F 81% 29.86 in 10.0 miles South 5.8 mph - 0.00 in   Overcast
11:53 AM 44.1°F 39.0°F 82% 29.87 in 10.0 miles SSW 6.9 mph - 0.00 in Rain Light Rain
12:53 PM 46.0°F 39.0°F 76% 29.87 in 10.0 miles South 5.8 mph - 0.00 in   Overcast
1:53 PM 46.0°F 39.0°F 76% 29.87 in 10.0 miles Calm Calm - 0.00 in   Overcast
2:00 PM 46.4°F 39.2°F 76% 29.87 in 10.0 miles Variable 4.6 mph - N/A   Overcast
2:12 PM 46.4°F 39.2°F 76% 29.87 in 10.0 miles SW 3.5 mph - N/A   Overcast
2:51 PM 46.4°F 39.2°F 76% 29.88 in 10.0 miles Calm Calm - N/A   Overcast
2:53 PM 46.9°F 39.9°F 77% 29.88 in 10.0 miles Calm Calm - N/A   Overcast
3:53 PM 46.9°F 39.0°F 74% 29.90 in 10.0 miles Calm Calm - N/A   Overcast
4:53 PM 46.0°F 39.9°F 79% 29.91 in 10.0 miles Calm Calm - 0.00 in   Overcast
5:42 PM 46.4°F 39.2°F 76% 29.93 in 10.0 miles Calm Calm - 0.00 in Rain Light Rain
5:53 PM 45.0°F 39.9°F 82% 29.93 in 10.0 miles Calm Calm - 0.00 in Rain Light Rain
6:10 PM 44.6°F 39.2°F 81% 29.94 in 10.0 miles Calm Calm - 0.01 in Rain Light Rain
6:30 PM 42.8°F 37.4°F 81% 29.94 in 6.0 miles NNE 4.6 mph - 0.03 in Rain Light Rain
6:41 PM 42.8°F 39.2°F 87% 29.94 in 6.0 miles Calm Calm - 0.05 in Rain Rain
6:53 PM 43.0°F 39.9°F 89% 29.95 in 7.0 miles Calm Calm - 0.07 in Rain Light Rain
7:53 PM 43.0°F 41.0°F 93% 29.97 in 4.0 miles Calm Calm - 0.03 in Rain Rain
8:53 PM 43.0°F 41.0°F 93% 29.99 in 8.0 miles Calm Calm - 0.08 in Rain Light Rain
9:53 PM 42.1°F 39.9°F 92% 30.01 in 10.0 miles Calm Calm - 0.00 in   Overcast
10:38 PM 42.8°F 39.2°F 87% 30.01 in 10.0 miles Calm Calm - N/A   Overcast
10:53 PM 42.1°F 39.9°F 92% 30.02 in 10.0 miles Calm Calm - N/A   Overcast
11:00 PM 42.8°F 39.2°F 87% 30.02 in 10.0 miles Calm Calm - N/A   Overcast
11:23 PM 42.8°F 39.2°F 87% 30.02 in 10.0 miles ESE 3.5 mph - N/A   Overcast
11:53 PM 43.0°F 39.9°F 89% 30.03 in 10.0 miles ESE 3.5 mph - N/A   Overcast
Moon Phase
Dec. 12 Dec. 13 Dec. 20 Dec. 28 Jan. 04
Sunrise:07:42 AM (PST) Moon Rise:06:51 AM (PST)12/12
Sunset:04:26 PM (PST) Moon Set:04:10 PM (PST)12/12

Copyright © 2014 The Weather Underground, Inc.